| time (UTC) | temp F | wind direction | speed MPH | gust MPH | rain 1hr in | rain 24hr in | rain mn in | humidity % | barometer mb |
| 20260507130118 | 53 | 348 | 2.0 | 6.0 | 0.00 | 0.00 | 0.00 | 95 | 1011.1 |
| 20260507125616 | 53 | 348 | 2.0 | 6.0 | 0.00 | 0.00 | 0.00 | 95 | 1011.1 |
| 20260507125116 | 53 | 351 | 2.0 | 6.0 | 0.00 | 0.00 | 0.00 | 95 | 1011.1 |
| 20260507124615 | 53 | 355 | 2.0 | 6.0 | 0.00 | 0.00 | 0.00 | 95 | 1011.1 |
| 20260507124112 | 53 | 321 | 2.0 | 6.0 | 0.00 | 0.00 | 0.00 | 95 | 1011.2 |
| 20260507123609 | 53 | 320 | 2.0 | 6.0 | 0.00 | 0.00 | 0.00 | 95 | 1011.2 |
| 20260507123107 | 53 | 319 | 2.0 | 5.0 | 0.00 | 0.00 | 0.00 | 95 | 1011.2 |
| 20260507122605 | 53 | 319 | 2.0 | 5.0 | 0.00 | 0.00 | 0.00 | 95 | 1011.2 |
| 20260507122108 | 53 | 318 | 2.0 | 6.0 | 0.00 | 0.00 | 0.00 | 95 | 1011.2 |
| 20260507121102 | 52 | 319 | 1.0 | 4.0 | 0.00 | 0.00 | 0.00 | 95 | 1011.3 |
| 20260507120602 | 52 | 319 | 2.0 | 4.0 | 0.00 | 0.00 | 0.00 | 95 | 1011.3 |
| 20260507115602 | 52 | 318 | 0.0 | 2.0 | 0.00 | 0.00 | 0.00 | 94 | 1011.3 |
| 20260507115103 | 53 | 319 | 0.0 | 2.0 | 0.00 | 0.00 | 0.00 | 94 | 1011.3 |
| 20260507114601 | 53 | 319 | 1.0 | 3.0 | 0.00 | 0.00 | 0.00 | 95 | 1011.3 |
| 20260507114053 | 53 | 318 | 1.0 | 4.0 | 0.00 | 0.00 | 0.00 | 94 | 1011.4 |
| 20260507113550 | 53 | 319 | 1.0 | 4.0 | 0.00 | 0.00 | 0.00 | 95 | 1011.4 |
| 20260507113045 | 52 | 319 | 1.0 | 3.0 | 0.00 | 0.00 | 0.00 | 95 | 1011.4 |
| 20260507112540 | 52 | 319 | 1.0 | 3.0 | 0.00 | 0.00 | 0.00 | 94 | 1011.5 |
| 20260507111540 | 52 | 319 | 2.0 | 4.0 | 0.00 | 0.00 | 0.00 | 94 | 1011.5 |
| 20260507111036 | 53 | 319 | 2.0 | 4.0 | 0.00 | 0.00 | 0.00 | 94 | 1011.6 |
| 20260507110543 | 53 | 318 | 2.0 | 4.0 | 0.00 | 0.00 | 0.00 | 94 | 1011.6 |
| 20260507110037 | 53 | 318 | 2.0 | 5.0 | 0.00 | 0.00 | 0.00 | 94 | 1011.6 |
| 20260507105534 | 53 | 318 | 2.0 | 5.0 | 0.00 | 0.00 | 0.00 | 94 | 1011.6 |
| 20260507105034 | 53 | 318 | 2.0 | 6.0 | 0.00 | 0.00 | 0.00 | 94 | 1011.6 |
| 20260507104532 | 53 | 319 | 2.0 | 6.0 | 0.00 | 0.00 | 0.00 | 94 | 1011.6 |
| 20260507104029 | 53 | 309 | 1.0 | 4.0 | 0.00 | 0.00 | 0.00 | 94 | 1011.8 |
| 20260507103524 | 53 | 309 | 2.0 | 6.0 | 0.00 | 0.00 | 0.00 | 94 | 1011.8 |
| 20260507103027 | 53 | 309 | 2.0 | 6.0 | 0.00 | 0.00 | 0.00 | 94 | 1011.8 |
| 20260507102021 | 53 | 290 | 1.0 | 3.0 | 0.00 | 0.00 | 0.00 | 94 | 1012.1 |
| 20260507101521 | 53 | 290 | 1.0 | 5.0 | 0.00 | 0.00 | 0.00 | 94 | 1012.1 |
| 20260507101022 | 53 | 290 | 1.0 | 5.0 | 0.00 | 0.00 | 0.00 | 94 | 1012.0 |
| 20260507100019 | 52 | 315 | 0.0 | 2.0 | 0.00 | 0.00 | 0.00 | 93 | 1012.0 |
| 20260507094517 | 53 | 315 | 0.0 | 2.0 | 0.00 | 0.00 | 0.00 | 93 | 1012.0 |
| 20260507094015 | 53 | 315 | 0.0 | 2.0 | 0.00 | 0.00 | 0.00 | 93 | 1012.1 |
| 20260507093511 | 53 | 315 | 0.0 | 1.0 | 0.00 | 0.00 | 0.00 | 93 | 1012.1 |
| 20260507092513 | 54 | 315 | 0.0 | 3.0 | 0.00 | 0.00 | 0.00 | 93 | 1012.1 |
| 20260507092009 | 54 | 315 | 0.0 | 3.0 | 0.00 | 0.00 | 0.00 | 93 | 1012.1 |
| 20260507091007 | 54 | 315 | 2.0 | 5.0 | 0.00 | 0.00 | 0.00 | 93 | 1012.4 |
| 20260507090505 | 54 | 315 | 2.0 | 5.0 | 0.00 | 0.00 | 0.00 | 93 | 1012.4 |
| 20260507090005 | 55 | 320 | 2.0 | 4.0 | 0.00 | 0.00 | 0.00 | 93 | 1012.4 |
| 20260507085459 | 55 | 320 | 2.0 | 5.0 | 0.00 | 0.00 | 0.00 | 92 | 1012.6 |
| 20260507085005 | 55 | 320 | 2.0 | 5.0 | 0.00 | 0.00 | 0.00 | 92 | 1012.6 |
| 20260507083957 | 55 | 331 | 2.0 | 5.0 | 0.00 | 0.00 | 0.00 | 92 | 1012.6 |
| 20260507083449 | 55 | 333 | 1.0 | 3.0 | 0.00 | 0.00 | 0.00 | 92 | 1012.6 |
| 20260507082445 | 55 | 333 | 1.0 | 5.0 | 0.00 | 0.00 | 0.00 | 92 | 1012.7 |
| 20260507081943 | 55 | 333 | 2.0 | 5.0 | 0.00 | 0.00 | 0.00 | 92 | 1012.7 |
| 20260507081438 | 55 | 333 | 2.0 | 6.0 | 0.00 | 0.00 | 0.00 | 91 | 1012.7 |
| 20260507080940 | 56 | 333 | 2.0 | 6.0 | 0.00 | 0.00 | 0.00 | 91 | 1012.9 |
| 20260507080437 | 56 | 336 | 1.0 | 3.0 | 0.00 | 0.00 | 0.00 | 91 | 1012.9 |
| 20260507075935 | 56 | 336 | 1.0 | 3.0 | 0.00 | 0.00 | 0.00 | 91 | 1012.9 |
| 20260507075430 | 56 | 336 | 0.0 | 2.0 | 0.00 | 0.00 | 0.00 | 91 | 1013.1 |
| 20260507074927 | 56 | 336 | 0.0 | 2.0 | 0.00 | 0.00 | 0.00 | 91 | 1013.1 |
| 20260507074427 | 56 | 336 | 1.0 | 3.0 | 0.00 | 0.00 | 0.00 | 91 | 1013.1 |
| 20260507073927 | 56 | 336 | 1.0 | 3.0 | 0.00 | 0.00 | 0.00 | 91 | 1013.1 |
| 20260507073422 | 56 | 336 | 1.0 | 3.0 | 0.00 | 0.00 | 0.00 | 91 | 1013.1 |
| 20260507072922 | 56 | 336 | 1.0 | 4.0 | 0.00 | 0.00 | 0.00 | 91 | 1013.1 |
| 20260507072422 | 56 | 336 | 1.0 | 4.0 | 0.00 | 0.00 | 0.00 | 91 | 1013.1 |
| 20260507070916 | 56 | 336 | 2.0 | 4.0 | 0.00 | 0.00 | 0.00 | 91 | 1013.1 |
| 20260507070423 | 56 | 336 | 2.0 | 4.0 | 0.00 | 0.00 | 0.00 | 91 | 1013.1 |
| 20260507065916 | 56 | 336 | 1.0 | 4.0 | 0.00 | 0.00 | 0.00 | 91 | 1013.1 |
| 20260507065410 | 56 | 336 | 1.0 | 4.0 | 0.00 | 0.00 | 0.00 | 91 | 1013.1 |
| 20260507064905 | 56 | 336 | 2.0 | 4.0 | 0.00 | 0.00 | 0.00 | 91 | 1013.1 |
| 20260507064406 | 56 | 336 | 2.0 | 4.0 | 0.00 | 0.00 | 0.00 | 90 | 1013.1 |
| 20260507063905 | 56 | 336 | 1.0 | 4.0 | 0.00 | 0.00 | 0.00 | 90 | 1013.2 |
| 20260507063405 | 56 | 336 | 2.0 | 5.0 | 0.00 | 0.00 | 0.00 | 90 | 1013.2 |
| 20260507062906 | 56 | 336 | 2.0 | 5.0 | 0.00 | 0.00 | 0.00 | 90 | 1013.2 |
| 20260507061904 | 56 | 336 | 2.0 | 6.0 | 0.00 | 0.00 | 0.00 | 90 | 1013.2 |
| 20260507061401 | 56 | 336 | 2.0 | 6.0 | 0.00 | 0.00 | 0.00 | 90 | 1013.2 |
| 20260507060858 | 56 | 336 | 2.0 | 6.0 | 0.00 | 0.00 | 0.00 | 90 | 1013.2 |
| 20260507060352 | 56 | 337 | 2.0 | 6.0 | 0.00 | 0.00 | 0.00 | 90 | 1013.2 |
| 20260507055850 | 56 | 336 | 1.0 | 4.0 | 0.00 | 0.00 | 0.00 | 90 | 1013.3 |
| 20260507055350 | 56 | 336 | 2.0 | 6.0 | 0.00 | 0.00 | 0.00 | 90 | 1013.3 |
| 20260507054850 | 56 | 336 | 2.0 | 6.0 | 0.00 | 0.00 | 0.00 | 89 | 1013.3 |
| 20260507054350 | 56 | 336 | 2.0 | 5.0 | 0.00 | 0.00 | 0.00 | 89 | 1013.4 |
| 20260507053848 | 57 | 335 | 2.0 | 5.0 | 0.00 | 0.00 | 0.00 | 89 | 1013.4 |
| 20260507052849 | 57 | 336 | 1.0 | 5.0 | 0.00 | 0.00 | 0.00 | 89 | 1013.2 |
| 20260507052344 | 57 | 336 | 2.0 | 8.0 | 0.00 | 0.00 | 0.00 | 89 | 1013.2 |
| 20260507051836 | 57 | 334 | 2.0 | 8.0 | 0.00 | 0.00 | 0.00 | 89 | 1013.2 |
| 20260507050833 | 57 | 335 | 2.0 | 6.0 | 0.00 | 0.00 | 0.00 | 89 | 1013.2 |
| 20260507050329 | 57 | 333 | 2.0 | 6.0 | 0.00 | 0.00 | 0.00 | 89 | 1013.2 |
| 20260507045828 | 57 | 333 | 2.0 | 6.0 | 0.00 | 0.00 | 0.00 | 89 | 1013.2 |
| 20260507044819 | 57 | 320 | 3.0 | 7.0 | 0.00 | 0.00 | 0.00 | 89 | 1013.2 |
| 20260507044319 | 57 | 335 | 2.0 | 6.0 | 0.00 | 0.00 | 0.00 | 89 | 1013.1 |
| 20260507043814 | 57 | 334 | 2.0 | 5.0 | 0.00 | 0.00 | 0.00 | 89 | 1013.1 |
| 20260507043312 | 57 | 334 | 2.0 | 5.0 | 0.00 | 0.00 | 0.00 | 88 | 1013.1 |
| 20260507042813 | 57 | 335 | 2.0 | 5.0 | 0.00 | 0.00 | 0.00 | 88 | 1013.1 |
| 20260507042311 | 57 | 335 | 2.0 | 4.0 | 0.00 | 0.00 | 0.00 | 88 | 1013.1 |
| 20260507041812 | 57 | 335 | 2.0 | 5.0 | 0.00 | 0.00 | 0.00 | 88 | 1013.1 |
| 20260507041312 | 57 | 335 | 1.0 | 5.0 | 0.00 | 0.00 | 0.00 | 87 | 1012.9 |
| 20260507040812 | 57 | 336 | 2.0 | 7.0 | 0.00 | 0.00 | 0.00 | 87 | 1012.9 |
| 20260507040313 | 57 | 336 | 2.0 | 7.0 | 0.00 | 0.00 | 0.00 | 87 | 1012.9 |
| 20260507035310 | 58 | 334 | 2.0 | 5.0 | 0.00 | 0.00 | 0.00 | 86 | 1012.9 |
| 20260507034807 | 58 | 335 | 2.0 | 7.0 | 0.00 | 0.00 | 0.00 | 86 | 1012.9 |
| 20260507033805 | 58 | 355 | 2.0 | 7.0 | 0.00 | 0.00 | 0.00 | 85 | 1012.7 |
| 20260507033304 | 58 | 327 | 1.0 | 7.0 | 0.00 | 0.00 | 0.00 | 85 | 1012.7 |
| 20260507032759 | 58 | 328 | 2.0 | 5.0 | 0.00 | 0.00 | 0.00 | 85 | 1012.7 |
| 20260507032258 | 58 | 328 | 2.0 | 7.0 | 0.00 | 0.00 | 0.00 | 84 | 1012.7 |
| 20260507031758 | 58 | 329 | 2.0 | 7.0 | 0.00 | 0.00 | 0.00 | 84 | 1012.7 |
| 20260507031257 | 58 | 336 | 2.0 | 6.0 | 0.00 | 0.00 | 0.00 | 84 | 1012.6 |
| 20260507030749 | 58 | 336 | 3.0 | 6.0 | 0.00 | 0.00 | 0.00 | 83 | 1012.6 |
| 20260507030249 | 59 | 329 | 3.0 | 7.0 | 0.00 | 0.00 | 0.00 | 83 | 1012.6 |
| 20260507025749 | 59 | 315 | 3.0 | 7.0 | 0.00 | 0.00 | 0.00 | 82 | 1012.4 |
| 20260507025252 | 60 | 329 | 2.0 | 6.0 | 0.00 | 0.00 | 0.00 | 81 | 1012.4 |
| 20260507024742 | 60 | 334 | 2.0 | 5.0 | 0.00 | 0.00 | 0.00 | 80 | 1012.4 |
| 20260507024241 | 60 | 311 | 2.0 | 5.0 | 0.00 | 0.00 | 0.00 | 79 | 1012.3 |
| 20260507023741 | 61 | 305 | 1.0 | 5.0 | 0.00 | 0.00 | 0.00 | 79 | 1012.3 |
| 20260507022229 | 61 | 309 | 3.0 | 8.0 | 0.00 | 0.00 | 0.00 | 76 | 1012.2 |
| 20260507021729 | 62 | 325 | 3.0 | 6.0 | 0.00 | 0.00 | 0.00 | 75 | 1012.2 |
| 20260507021228 | 62 | 323 | 3.0 | 6.0 | 0.00 | 0.00 | 0.00 | 74 | 1012.2 |
| 20260507020732 | 63 | 322 | 3.0 | 6.0 | 0.00 | 0.00 | 0.00 | 73 | 1012.2 |
| 20260507015725 | 64 | 322 | 3.0 | 8.0 | 0.00 | 0.00 | 0.00 | 70 | 1012.2 |
| 20260507015224 | 65 | 340 | 3.0 | 8.0 | 0.00 | 0.00 | 0.00 | 69 | 1012.2 |
| 20260507014722 | 65 | 279 | 2.0 | 8.0 | 0.00 | 0.00 | 0.00 | 68 | 1012.2 |
| 20260507014219 | 66 | 284 | 2.0 | 6.0 | 0.00 | 0.00 | 0.00 | 67 | 1012.3 |
| 20260507013717 | 66 | 316 | 4.0 | 8.0 | 0.00 | 0.00 | 0.00 | 67 | 1012.3 |
| 20260507013216 | 66 | 319 | 4.0 | 8.0 | 0.00 | 0.00 | 0.00 | 67 | 1012.3 |
| 20260507012212 | 66 | 288 | 3.0 | 8.0 | 0.00 | 0.00 | 0.00 | 65 | 1012.2 |
| 20260507011714 | 66 | 262 | 3.0 | 8.0 | 0.00 | 0.00 | 0.00 | 67 | 1012.2 |
| 20260507011212 | 65 | 273 | 4.0 | 11.0 | 0.00 | 0.00 | 0.00 | 67 | 1012.2 |
| 20260507010711 | 65 | 263 | 5.0 | 15.0 | 0.00 | 0.00 | 0.00 | 66 | 1012.2 |
| 20260507005708 | 65 | 255 | 5.0 | 11.0 | 0.00 | 0.00 | 0.00 | 69 | 1012.2 |
| 20260507005206 | 65 | 275 | 5.0 | 15.0 | 0.00 | 0.00 | 0.00 | 67 | 1012.2 |
| 20260507004701 | 66 | 304 | 5.0 | 15.0 | 0.00 | 0.00 | 0.00 | 68 | 1012.3 |
| 20260507004159 | 66 | 303 | 5.0 | 11.0 | 0.00 | 0.00 | 0.00 | 68 | 1012.3 |
| 20260507003658 | 65 | 272 | 6.0 | 13.0 | 0.00 | 0.00 | 0.00 | 68 | 1012.3 |
| 20260507002700 | 67 | 287 | 5.0 | 10.0 | 0.00 | 0.00 | 0.00 | 66 | 1012.1 |
| 20260507002156 | 67 | 11 | 5.0 | 11.0 | 0.00 | 0.00 | 0.00 | 65 | 1012.1 |
| 20260507001654 | 67 | 339 | 5.0 | 11.0 | 0.00 | 0.00 | 0.00 | 64 | 1012.1 |
| 20260507001155 | 68 | 323 | 4.0 | 10.0 | 0.00 | 0.00 | 0.00 | 63 | 1012.0 |
| 20260507000154 | 68 | 311 | 5.0 | 12.0 | 0.00 | 0.00 | 0.00 | 63 | 1012.0 |
| 20260506235651 | 69 | 308 | 5.0 | 11.0 | 0.00 | 0.00 | 0.00 | 63 | 1011.8 |
| 20260506235153 | 68 | 0 | 5.0 | 14.0 | 0.00 | 0.00 | 0.00 | 63 | 1011.8 |
| 20260506234650 | 69 | 355 | 5.0 | 14.0 | 0.00 | 0.00 | 0.00 | 62 | 1011.8 |
| 20260506234151 | 69 | 322 | 4.0 | 11.0 | 0.00 | 0.00 | 0.00 | 64 | 1011.8 |
| 20260506233649 | 69 | 318 | 5.0 | 11.0 | 0.00 | 0.00 | 0.00 | 64 | 1011.8 |
| 20260506233148 | 69 | 310 | 5.0 | 10.0 | 0.00 | 0.00 | 0.00 | 63 | 1011.8 |
| 20260506232650 | 68 | 320 | 6.0 | 14.0 | 0.00 | 0.00 | 0.00 | 65 | 1011.7 |
| 20260506232153 | 68 | 306 | 7.0 | 14.0 | 0.00 | 0.00 | 0.00 | 63 | 1011.7 |
| 20260506231645 | 68 | 313 | 7.0 | 14.0 | 0.00 | 0.00 | 0.00 | 63 | 1011.7 |
| 20260506231142 | 68 | 304 | 8.0 | 14.0 | 0.00 | 0.00 | 0.00 | 64 | 1011.8 |
| 20260506230640 | 67 | 316 | 8.0 | 15.0 | 0.00 | 0.00 | 0.00 | 63 | 1011.8 |
| 20260506230139 | 68 | 267 | 8.0 | 15.0 | 0.00 | 0.00 | 0.00 | 63 | 1011.8 |
| 20260506225637 | 68 | 303 | 8.0 | 15.0 | 0.00 | 0.00 | 0.00 | 64 | 1011.8 |
| 20260506225137 | 68 | 312 | 8.0 | 13.0 | 0.00 | 0.00 | 0.00 | 64 | 1011.8 |
| 20260506224638 | 67 | 305 | 9.0 | 15.0 | 0.00 | 0.00 | 0.00 | 65 | 1011.8 |
| 20260506223134 | 68 | 309 | 7.0 | 14.0 | 0.00 | 0.00 | 0.00 | 65 | 1012.0 |
| 20260506222639 | 68 | 314 | 7.0 | 17.0 | 0.00 | 0.00 | 0.00 | 64 | 1012.2 |
| 20260506222133 | 68 | 302 | 8.0 | 17.0 | 0.00 | 0.00 | 0.00 | 67 | 1012.2 |
| 20260506221630 | 68 | 308 | 7.0 | 15.0 | 0.00 | 0.00 | 0.00 | 66 | 1012.2 |
| 20260506221127 | 68 | 311 | 7.0 | 16.0 | 0.00 | 0.00 | 0.00 | 66 | 1012.3 |
| 20260506220626 | 68 | 281 | 8.0 | 18.0 | 0.00 | 0.00 | 0.00 | 66 | 1012.3 |
| 20260506220127 | 69 | 297 | 7.0 | 18.0 | 0.00 | 0.00 | 0.00 | 64 | 1012.3 |
| 20260506215126 | 68 | 286 | 7.0 | 16.0 | 0.00 | 0.00 | 0.00 | 65 | 1012.4 |
| 20260506213120 | 69 | 292 | 6.0 | 14.0 | 0.00 | 0.00 | 0.00 | 64 | 1012.6 |
| 20260506212620 | 69 | 321 | 7.0 | 14.0 | 0.00 | 0.00 | 0.00 | 64 | 1012.8 |
| 20260506212112 | 69 | 304 | 7.0 | 14.0 | 0.00 | 0.00 | 0.00 | 66 | 1012.8 |
| 20260506211610 | 69 | 315 | 6.0 | 13.0 | 0.00 | 0.00 | 0.00 | 65 | 1012.8 |
| 20260506211107 | 69 | 287 | 7.0 | 12.0 | 0.00 | 0.00 | 0.00 | 65 | 1012.8 |
| 20260506210608 | 69 | 338 | 7.0 | 13.0 | 0.00 | 0.00 | 0.00 | 66 | 1012.8 |
| 20260506210108 | 69 | 304 | 7.0 | 13.0 | 0.00 | 0.00 | 0.00 | 66 | 1012.8 |
| 20260506205105 | 69 | 319 | 7.0 | 14.0 | 0.00 | 0.00 | 0.00 | 67 | 1012.8 |
| 20260506204604 | 68 | 277 | 7.0 | 15.0 | 0.00 | 0.00 | 0.00 | 67 | 1012.8 |
| 20260506203605 | 69 | 316 | 7.0 | 16.0 | 0.00 | 0.00 | 0.00 | 64 | 1012.9 |
| 20260506203101 | 69 | 315 | 7.0 | 16.0 | 0.00 | 0.00 | 0.00 | 66 | 1012.9 |
| 20260506202555 | 70 | 308 | 7.0 | 16.0 | 0.00 | 0.00 | 0.00 | 64 | 1012.9 |
| 20260506201553 | 70 | 333 | 7.0 | 13.0 | 0.00 | 0.00 | 0.00 | 63 | 1012.9 |
| 20260506201049 | 70 | 317 | 6.0 | 13.0 | 0.00 | 0.00 | 0.00 | 63 | 1013.0 |
| 20260506200548 | 70 | 325 | 5.0 | 12.0 | 0.00 | 0.00 | 0.00 | 64 | 1013.0 |
| 20260506200046 | 70 | 323 | 5.0 | 12.0 | 0.00 | 0.00 | 0.00 | 64 | 1013.0 |
| 20260506195546 | 69 | 5 | 7.0 | 16.0 | 0.00 | 0.00 | 0.00 | 65 | 1012.9 |
| 20260506195046 | 69 | 321 | 7.0 | 16.0 | 0.00 | 0.00 | 0.00 | 64 | 1012.9 |
| 20260506194546 | 71 | 28 | 6.0 | 13.0 | 0.00 | 0.00 | 0.00 | 63 | 1012.9 |
| 20260506193541 | 71 | 315 | 7.0 | 13.0 | 0.00 | 0.00 | 0.00 | 63 | 1012.8 |
| 20260506192535 | 73 | 328 | 5.0 | 12.0 | 0.00 | 0.00 | 0.00 | 61 | 1013.0 |
| 20260506192034 | 72 | 319 | 6.0 | 13.0 | 0.00 | 0.00 | 0.00 | 61 | 1013.0 |
| 20260506191534 | 72 | 313 | 6.0 | 13.0 | 0.00 | 0.00 | 0.00 | 61 | 1013.0 |
| 20260506191031 | 71 | 320 | 5.0 | 10.0 | 0.00 | 0.00 | 0.00 | 63 | 1013.2 |
| 20260506190530 | 71 | 316 | 5.0 | 11.0 | 0.00 | 0.00 | 0.00 | 62 | 1013.2 |
| 20260506190025 | 71 | 323 | 5.0 | 11.0 | 0.00 | 0.00 | 0.00 | 62 | 1013.2 |
| 20260506185523 | 71 | 317 | 5.0 | 11.0 | 0.00 | 0.00 | 0.00 | 64 | 1013.3 |
| 20260506184517 | 71 | 315 | 6.0 | 11.0 | 0.00 | 0.00 | 0.00 | 62 | 1013.3 |
| 20260506184021 | 71 | 317 | 5.0 | 11.0 | 0.00 | 0.00 | 0.00 | 62 | 1013.2 |
| 20260506183520 | 71 | 289 | 5.0 | 10.0 | 0.00 | 0.00 | 0.00 | 61 | 1013.2 |
| 20260506183018 | 71 | 305 | 5.0 | 11.0 | 0.00 | 0.00 | 0.00 | 60 | 1013.2 |
| 20260506182514 | 71 | 315 | 5.0 | 12.0 | 0.00 | 0.00 | 0.00 | 61 | 1013.4 |
| 20260506182011 | 71 | 335 | 5.0 | 12.0 | 0.00 | 0.00 | 0.00 | 61 | 1013.4 |
| 20260506181511 | 72 | 297 | 4.0 | 9.0 | 0.00 | 0.00 | 0.00 | 60 | 1013.4 |
| 20260506181010 | 72 | 337 | 4.0 | 9.0 | 0.00 | 0.00 | 0.00 | 58 | 1013.4 |
| 20260506180512 | 72 | 314 | 4.0 | 8.0 | 0.00 | 0.00 | 0.00 | 59 | 1013.4 |
| 20260506180010 | 73 | 351 | 4.0 | 8.0 | 0.00 | 0.00 | 0.00 | 58 | 1013.4 |
| 20260506175512 | 73 | 311 | 3.0 | 7.0 | 0.00 | 0.00 | 0.00 | 59 | 1013.4 |
| 20260506174514 | 74 | 307 | 3.0 | 8.0 | 0.00 | 0.00 | 0.00 | 58 | 1013.4 |
| 20260506174006 | 74 | 34 | 2.0 | 5.0 | 0.00 | 0.00 | 0.00 | 57 | 1013.4 |
| 20260506173502 | 73 | 5 | 2.0 | 7.0 | 0.00 | 0.00 | 0.00 | 55 | 1013.4 |
| 20260506173001 | 73 | 40 | 2.0 | 7.0 | 0.00 | 0.00 | 0.00 | 56 | 1013.4 |
| 20260506172500 | 73 | 34 | 1.0 | 4.0 | 0.00 | 0.00 | 0.00 | 57 | 1013.4 |
| 20260506171455 | 72 | 30 | 2.0 | 5.0 | 0.00 | 0.00 | 0.00 | 59 | 1013.4 |
| 20260506170955 | 72 | 5 | 2.0 | 5.0 | 0.00 | 0.00 | 0.00 | 59 | 1013.4 |
| 20260506170456 | 71 | 0 | 2.0 | 5.0 | 0.00 | 0.00 | 0.00 | 61 | 1013.4 |
| 20260506165950 | 70 | 341 | 2.0 | 4.0 | 0.00 | 0.00 | 0.00 | 60 | 1013.4 |
| 20260506165444 | 70 | 341 | 2.0 | 5.0 | 0.00 | 0.00 | 0.00 | 61 | 1013.4 |
| 20260506164942 | 69 | 344 | 2.0 | 5.0 | 0.00 | 0.00 | 0.00 | 62 | 1013.4 |
| 20260506164442 | 69 | 344 | 2.0 | 4.0 | 0.00 | 0.00 | 0.00 | 64 | 1013.4 |
| 20260506163438 | 68 | 280 | 2.0 | 5.0 | 0.00 | 0.00 | 0.00 | 64 | 1013.3 |
| 20260506162941 | 68 | 285 | 2.0 | 7.0 | 0.00 | 0.00 | 0.00 | 65 | 1013.3 |
| 20260506162440 | 67 | 289 | 2.0 | 7.0 | 0.00 | 0.00 | 0.00 | 65 | 1013.4 |
| 20260506161938 | 68 | 297 | 2.0 | 5.0 | 0.00 | 0.00 | 0.00 | 65 | 1013.4 |
| 20260506161441 | 67 | 355 | 2.0 | 5.0 | 0.00 | 0.00 | 0.00 | 66 | 1013.4 |
| 20260506160435 | 66 | 355 | 2.0 | 5.0 | 0.00 | 0.00 | 0.00 | 68 | 1013.4 |
| 20260506155935 | 65 | 355 | 2.0 | 4.0 | 0.00 | 0.00 | 0.00 | 71 | 1013.3 |
| 20260506154931 | 64 | 236 | 2.0 | 5.0 | 0.00 | 0.00 | 0.00 | 75 | 1013.5 |
| 20260506154429 | 63 | 311 | 2.0 | 7.0 | 0.00 | 0.00 | 0.00 | 75 | 1013.5 |
| 20260506153928 | 63 | 272 | 2.0 | 7.0 | 0.00 | 0.00 | 0.00 | 76 | 1013.7 |
| 20260506152925 | 62 | 343 | 2.0 | 4.0 | 0.00 | 0.00 | 0.00 | 77 | 1013.7 |
| 20260506151927 | 61 | 320 | 2.0 | 5.0 | 0.00 | 0.00 | 0.00 | 80 | 1013.8 |
| 20260506151422 | 60 | 320 | 2.0 | 5.0 | 0.00 | 0.00 | 0.00 | 81 | 1013.8 |
| 20260506150921 | 60 | 317 | 1.0 | 4.0 | 0.00 | 0.00 | 0.00 | 84 | 1013.8 |
| 20260506150418 | 59 | 317 | 2.0 | 4.0 | 0.00 | 0.00 | 0.00 | 87 | 1013.8 |
| 20260506145914 | 58 | 317 | 2.0 | 4.0 | 0.00 | 0.00 | 0.00 | 90 | 1013.7 |
| 20260506145416 | 57 | 317 | 2.0 | 4.0 | 0.00 | 0.00 | 0.00 | 92 | 1013.7 |
| 20260506144909 | 56 | 269 | 1.0 | 3.0 | 0.00 | 0.00 | 0.00 | 94 | 1013.7 |
| 20260506144412 | 56 | 269 | 0.0 | 3.0 | 0.00 | 0.00 | 0.00 | 95 | 1013.7 |
| 20260506143914 | 55 | 269 | 0.0 | 3.0 | 0.00 | 0.00 | 0.00 | 95 | 1013.3 |
| 20260506143408 | 55 | 268 | 1.0 | 2.0 | 0.00 | 0.00 | 0.00 | 95 | 1013.3 |
| 20260506142404 | 54 | 268 | 0.0 | 1.0 | 0.00 | 0.00 | 0.00 | 97 | 1013.2 |
| 20260506141858 | 53 | 268 | 0.0 | 1.0 | 0.00 | 0.00 | 0.00 | 97 | 1013.2 |
| 20260506141358 | 52 | 268 | 0.0 | 1.0 | 0.00 | 0.00 | 0.00 | 97 | 1013.1 |
| 20260506140856 | 51 | 268 | 0.0 | 2.0 | 0.00 | 0.00 | 0.00 | 96 | 1013.1 |
| 20260506140355 | 50 | 268 | 0.0 | 3.0 | 0.00 | 0.00 | 0.00 | 96 | 1013.1 |
| 20260506135852 | 50 | 268 | 0.0 | 3.0 | 0.00 | 0.00 | 0.00 | 96 | 1013.0 |
| 20260506134854 | 49 | 268 | 0.0 | 2.0 | 0.00 | 0.00 | 0.00 | 96 | 1013.0 |
| 20260506134351 | 48 | 268 | 0.0 | 0.0 | 0.00 | 0.00 | 0.00 | 95 | 1013.0 |
| 20260506133352 | 48 | 268 | 0.0 | 1.0 | 0.00 | 0.00 | 0.00 | 95 | 1013.0 |
| 20260506132848 | 48 | 268 | 0.0 | 1.0 | 0.00 | 0.00 | 0.00 | 95 | 1012.8 |
| 20260506131852 | 48 | 268 | 0.0 | 2.0 | 0.00 | 0.00 | 0.00 | 95 | 1012.8 |
| 20260506131342 | 47 | 268 | 0.0 | 2.0 | 0.00 | 0.00 | 0.00 | 95 | 1012.7 |
| 20260506130838 | 47 | 268 | 0.0 | 2.0 | 0.00 | 0.00 | 0.00 | 95 | 1012.7 |